User: anonymous   Login
Location: Mactaquac Provincial Park
(45.9573°N, 66.8897°W)
Time: 06:05:14
(UTC-04:00)
Language:

Cosmos 1766 - Orbit

View from above orbital plane
View from above orbital plane
View from above satellite
View from above satellite

Ground track
Ground track

The orbit data is extracted from the following two-line orbital elements,

1 16881U 86055A   17017.01758865  .00000363  00000-0  20483-4 0  9997
2 16881  82.5115 171.5349 0014424 260.6160  99.3439 15.09934839658629
Epoch (UTC): 17 January 2017 00:25:19
Eccentricity: 0.0014424
inclination: 82.5115°
perigee height: 526 km
apogee height: 546 km
right ascension of ascending node: 171.5349°
argument of perigee: 260.6160°
revolutions per day: 15.09934839
mean anomaly at epoch: 99.3439°
orbit number at epoch: 65862

The dashed part of the orbit path shows where the satellite is in the earth's shadow,  

DLR